EW5393 Weather Reports


Display with metric or nautical units.
time (UTC)temp
F
wind
direction
speed
MPH
gust
MPH
rain 1hr
in
rain 24hr
in
rain mn
in
humidity
%
barometer
mb
20260901184304 75 53 1.0 1.0 0.00 0.00 0.00 39 1012.2
20260901183804 75 53 1.0 1.0 0.00 0.00 0.00 38 1012.4
20260901183303 75 53 1.0 1.0 0.00 0.00 0.00 38 1012.5
20260901182305 75 53 1.0 1.0 0.00 0.00 0.00 38 1012.5
20260901181804 75 53 1.0 1.0 0.00 0.00 0.00 39 1012.5
20260901181304 75 53 1.0 1.0 0.00 0.00 0.00 38 1012.5
20260901180803 75 53 1.0 1.0 0.00 0.00 0.00 40 1012.6
20260901180304 74 53 1.0 1.0 0.00 0.00 0.00 40 1012.7
20260901175804 74 53 1.0 1.0 0.00 0.00 0.00 43 1012.6
20260901175305 74 53 1.0 1.0 0.00 0.00 0.00 41 1012.8
20260901174804 74 53 1.0 1.0 0.00 0.00 0.00 40 1012.6
20260901174304 73 53 1.0 1.0 0.00 0.00 0.00 43 1012.8
20260901173803 73 53 1.0 1.0 0.00 0.00 0.00 41 1013.0
20260901172804 72 53 1.0 1.0 0.00 0.00 0.00 45 1012.9
20260901172305 72 53 1.0 1.0 0.00 0.00 0.00 44 1012.9
20260901171804 72 53 1.0 1.0 0.00 0.00 0.00 43 1012.9
20260901171304 72 53 1.0 1.0 0.00 0.00 0.00 46 1012.9
20260901170803 72 53 1.0 1.0 0.00 0.00 0.00 47 1012.9
20260901170303 71 53 1.0 1.0 0.00 0.00 0.00 47 1013.2
20260901165804 71 53 1.0 1.0 0.00 0.00 0.00 46 1013.1
20260901165306 71 53 1.0 1.0 0.00 0.00 0.00 45 1012.9
20260901164804 71 53 1.0 1.0 0.00 0.00 0.00 48 1013.0
20260901164304 71 53 1.0 1.0 0.00 0.00 0.00 48 1012.9
20260901163804 70 53 1.0 1.0 0.00 0.00 0.00 49 1013.1
20260901163304 70 53 1.0 1.0 0.00 0.00 0.00 52 1013.2
20260901162804 69 53 1.0 1.0 0.00 0.00 0.00 52 1013.1
20260901162306 68 53 1.0 1.0 0.00 0.00 0.00 52 1013.1
20260901161804 68 53 1.0 1.0 0.00 0.00 0.00 52 1013.1
20260901161303 68 53 1.0 1.0 0.00 0.00 0.00 54 1013.1
20260901160804 67 53 1.0 1.0 0.00 0.00 0.00 54 1013.1
20260901160304 66 53 1.0 1.0 0.00 0.00 0.00 56 1013.1
20260901155804 66 53 1.0 1.0 0.00 0.00 0.00 56 1013.3
20260901155306 66 53 1.0 1.0 0.00 0.00 0.00 55 1013.1
20260901154804 66 53 1.0 1.0 0.00 0.00 0.00 56 1013.2
20260901154303 66 53 1.0 1.0 0.00 0.00 0.00 57 1013.2
20260901153803 65 53 1.0 1.0 0.00 0.00 0.00 57 1013.2
20260901153303 63 53 1.0 1.0 0.00 0.00 0.00 59 1013.4
20260901152804 63 53 1.0 1.0 0.00 0.00 0.00 60 1013.4
20260901152306 62 53 1.0 1.0 0.00 0.00 0.00 61 1013.4
20260901151804 62 53 1.0 1.0 0.00 0.00 0.00 60 1013.3
20260901151304 62 53 1.0 1.0 0.00 0.00 0.00 60 1013.5
20260901150304 59 53 1.0 1.0 0.00 0.00 0.00 65 1013.4
20260901145804 58 53 1.0 1.0 0.00 0.00 0.00 66 1013.5
20260901145306 56 53 1.0 1.0 0.00 0.00 0.00 69 1013.6
20260901144803 55 53 1.0 1.0 0.00 0.00 0.00 70 1013.5
20260901143804 54 53 1.0 1.0 0.00 0.00 0.00 70 1013.5
20260901143304 54 53 1.0 1.0 0.00 0.00 0.00 70 1013.6
20260901142803 54 53 1.0 1.0 0.00 0.00 0.00 70 1013.4
20260901142305 54 53 1.0 1.0 0.00 0.00 0.00 71 1013.4
20260901141804 53 53 1.0 1.0 0.00 0.00 0.00 71 1013.2
20260901141304 53 53 1.0 1.0 0.00 0.00 0.00 71 1013.4
20260901140804 53 53 1.0 1.0 0.00 0.00 0.00 71 1013.1
20260901140304 52 53 1.0 1.0 0.00 0.00 0.00 72 1013.4
20260901135804 52 53 1.0 1.0 0.00 0.00 0.00 72 1013.5
20260901135305 52 53 1.0 1.0 0.00 0.00 0.00 72 1013.5
20260901134803 51 53 1.0 1.0 0.00 0.00 0.00 72 1013.3
20260901133803 51 53 1.0 1.0 0.00 0.00 0.00 73 1013.5
20260901132804 51 53 1.0 1.0 0.00 0.00 0.00 72 1013.4
20260901132307 50 53 1.0 1.0 0.00 0.00 0.00 73 1013.3
20260901131804 50 53 1.0 1.0 0.00 0.00 0.00 73 1013.2
20260901131304 50 53 1.0 1.0 0.00 0.00 0.00 73 1013.3
20260901130804 50 53 1.0 1.0 0.00 0.00 0.00 73 1013.4
20260901130304 50 53 1.0 1.0 0.00 0.00 0.00 73 1013.2
20260901125804 50 53 1.0 1.0 0.00 0.00 0.00 74 1013.3
20260901125308 50 53 1.0 1.0 0.00 0.00 0.00 73 1013.5
20260901124804 50 53 1.0 1.0 0.00 0.00 0.00 73 1013.2
20260901124303 50 53 1.0 1.0 0.00 0.00 0.00 72 1013.1
20260901123804 50 53 1.0 1.0 0.00 0.00 0.00 72 1013.4
20260901123304 50 53 1.0 1.0 0.00 0.00 0.00 72 1013.3
20260901122804 50 53 1.0 1.0 0.00 0.00 0.00 72 1013.4
20260901122306 49 53 1.0 1.0 0.00 0.00 0.00 72 1013.5
20260901121804 50 53 1.0 1.0 0.00 0.00 0.00 71 1013.3
20260901121304 50 53 1.0 1.0 0.00 0.00 0.00 71 1013.4
20260901120803 50 53 1.0 1.0 0.00 0.00 0.00 71 1013.5
20260901120304 50 53 1.0 1.0 0.00 0.00 0.00 71 1013.5
20260901115804 50 53 1.0 1.0 0.00 0.00 0.00 70 1013.4
20260901115306 50 53 1.0 1.0 0.00 0.00 0.00 70 1013.3
20260901114804 50 53 1.0 1.0 0.00 0.00 0.00 70 1013.2
20260901113803 51 53 1.0 1.0 0.00 0.00 0.00 69 1013.3
20260901113304 51 53 1.0 1.0 0.00 0.00 0.00 69 1013.4
20260901112803 51 53 1.0 1.0 0.00 0.00 0.00 70 1013.5
20260901112306 51 53 1.0 1.0 0.00 0.00 0.00 70 1013.4
20260901111304 51 53 1.0 1.0 0.00 0.00 0.00 69 1013.4
20260901110304 51 53 1.0 1.0 0.00 0.00 0.00 69 1013.3
20260901105804 51 53 1.0 1.0 0.00 0.00 0.00 69 1013.2
20260901105305 51 53 1.0 1.0 0.00 0.00 0.00 69 1013.3
20260901104803 51 53 1.0 1.0 0.00 0.00 0.00 69 1013.3
20260901103803 51 53 1.0 1.0 0.00 0.00 0.00 69 1013.1
20260901103304 51 53 1.0 1.0 0.00 0.00 0.00 69 1013.3
20260901102804 51 53 1.0 1.0 0.00 0.00 0.00 69 1013.3
20260901101803 51 53 1.0 1.0 0.00 0.00 0.00 70 1013.2
20260901100803 51 53 1.0 1.0 0.00 0.00 0.00 69 1013.2
20260901095804 52 53 1.0 1.0 0.00 0.00 0.00 68 1013.2
20260901095306 52 53 1.0 1.0 0.00 0.00 0.00 68 1013.2
20260901094804 52 53 1.0 1.0 0.00 0.00 0.00 68 1013.3
20260901094304 52 53 1.0 1.0 0.00 0.00 0.00 67 1013.4
20260901093804 52 53 1.0 1.0 0.00 0.00 0.00 67 1013.4
20260901093304 52 53 1.0 1.0 0.00 0.00 0.00 68 1013.4
20260901092804 52 53 1.0 1.0 0.00 0.00 0.00 68 1013.4
20260901092305 52 53 1.0 1.0 0.00 0.00 0.00 68 1013.4
20260901091804 52 53 1.0 1.0 0.00 0.00 0.00 68 1013.5
20260901091304 52 53 1.0 1.0 0.00 0.00 0.00 68 1013.6
20260901090804 52 53 1.0 1.0 0.00 0.00 0.00 68 1013.5
20260901090304 52 53 1.0 1.0 0.00 0.00 0.00 66 1013.5
20260901085306 52 53 1.0 1.0 0.00 0.00 0.00 66 1013.5
20260901084804 53 53 1.0 1.0 0.00 0.00 0.00 66 1013.6
20260901084304 53 53 1.0 1.0 0.00 0.00 0.00 66 1013.8
20260901083804 53 53 1.0 1.0 0.00 0.00 0.00 66 1013.6
20260901083304 53 53 1.0 1.0 0.00 0.00 0.00 66 1013.7
20260901082804 53 53 1.0 1.0 0.00 0.00 0.00 66 1013.8
20260901082306 53 53 1.0 1.0 0.00 0.00 0.00 66 1013.8
20260901081803 53 53 1.0 1.0 0.00 0.00 0.00 67 1013.9
20260901081304 53 53 1.0 1.0 0.00 0.00 0.00 66 1013.6
20260901080804 54 53 1.0 1.0 0.00 0.00 0.00 66 1013.7
20260901080303 54 53 1.0 1.0 0.00 0.00 0.00 65 1013.9
20260901075804 54 53 1.0 1.0 0.00 0.00 0.00 66 1013.9
20260901075307 54 53 1.0 1.0 0.00 0.00 0.00 66 1013.8
20260901074804 54 53 1.0 1.0 0.00 0.00 0.00 64 1013.8
20260901074304 54 53 1.0 1.0 0.00 0.00 0.00 64 1014.0
20260901073803 54 53 1.0 1.0 0.00 0.00 0.00 64 1013.9
20260901073304 54 53 1.0 1.0 0.00 0.00 0.00 64 1014.1
20260901072804 54 53 1.0 1.0 0.00 0.00 0.00 64 1014.1
20260901072308 55 53 1.0 1.0 0.00 0.00 0.00 64 1014.1
20260901071804 55 53 1.0 1.0 0.00 0.00 0.00 64 1013.9
20260901071304 55 53 1.0 1.0 0.00 0.00 0.00 64 1014.0
20260901070804 55 53 1.0 1.0 0.00 0.00 0.00 64 1014.0
20260901070304 55 53 1.0 1.0 0.00 0.00 0.00 64 1014.1
20260901065803 55 53 1.0 1.0 0.00 0.00 0.00 64 1014.2
20260901065305 55 53 1.0 1.0 0.00 0.00 0.00 64 1014.3
20260901064303 55 53 1.0 1.0 0.00 0.00 0.00 65 1014.0
20260901063804 55 53 1.0 1.0 0.00 0.00 0.00 62 1014.0
20260901063304 56 53 1.0 1.0 0.00 0.00 0.00 62 1014.0
20260901062804 56 53 1.0 1.0 0.00 0.00 0.00 63 1014.1
20260901062309 56 53 1.0 1.0 0.00 0.00 0.00 63 1014.1
20260901061804 56 53 1.0 1.0 0.00 0.00 0.00 62 1014.1
20260901061304 56 53 1.0 1.0 0.00 0.00 0.00 61 1014.2
20260901060804 56 53 1.0 1.0 0.00 0.00 0.00 61 1014.3
20260901060305 56 53 1.0 1.0 0.00 0.00 0.00 60 1014.2
20260901055804 56 53 1.0 1.0 0.00 0.00 0.00 60 1014.2
20260901055306 56 53 1.0 1.0 0.00 0.00 0.00 60 1014.2
20260901054804 57 53 1.0 1.0 0.00 0.00 0.00 59 1014.2
20260901054303 57 53 1.0 1.0 0.00 0.00 0.00 59 1014.4
20260901053804 57 53 1.0 1.0 0.00 0.00 0.00 59 1014.3
20260901053304 57 53 1.0 1.0 0.00 0.00 0.00 58 1014.2
20260901052306 58 53 1.0 1.0 0.00 0.00 0.00 58 1014.3
20260901050804 58 53 1.0 1.0 0.00 0.00 0.00 56 1014.4
20260901050304 58 53 1.0 1.0 0.00 0.00 0.00 56 1014.3
20260901045804 58 53 1.0 1.0 0.00 0.00 0.00 56 1014.2
20260901045306 58 53 1.0 1.0 0.00 0.00 0.00 56 1014.2
20260901044804 59 53 1.0 1.0 0.00 0.00 0.00 55 1014.2
20260901044303 59 53 1.0 1.0 0.00 0.00 0.00 55 1014.4
20260901043804 59 53 1.0 1.0 0.00 0.00 0.00 55 1014.3
20260901043304 59 53 1.0 1.0 0.00 0.00 0.00 55 1014.2
20260901042804 59 53 1.0 1.0 0.00 0.00 0.00 55 1014.4
20260901042306 59 53 1.0 1.0 0.00 0.00 0.00 55 1014.4
20260901040804 60 53 1.0 1.0 0.00 0.00 0.00 54 1014.4
20260901040303 60 53 1.0 1.0 0.00 0.00 0.00 54 1014.5
20260901035804 61 53 1.0 1.0 0.00 0.00 0.00 53 1014.3
20260901035305 61 53 1.0 1.0 0.00 0.00 0.00 52 1014.3
20260901034803 61 53 1.0 1.0 0.00 0.00 0.00 52 1014.3
20260901034304 61 53 1.0 1.0 0.00 0.00 0.00 52 1014.2
20260901033804 61 53 1.0 1.0 0.00 0.00 0.00 52 1014.4
20260901033304 61 53 1.0 1.0 0.00 0.00 0.00 52 1014.0
20260901032804 62 53 1.0 1.0 0.00 0.00 0.00 51 1014.1
20260901032306 62 53 1.0 1.0 0.00 0.00 0.00 51 1014.1
20260901031804 62 53 1.0 1.0 0.00 0.00 0.00 50 1014.1
20260901031304 63 53 1.0 1.0 0.00 0.00 0.00 50 1014.0
20260901030804 63 53 1.0 1.0 0.00 0.00 0.00 50 1014.0
20260901025803 63 53 1.0 1.0 0.00 0.00 0.00 49 1013.8
20260901025306 64 53 1.0 1.0 0.00 0.00 0.00 49 1013.7
20260901024804 64 53 1.0 1.0 0.00 0.00 0.00 49 1013.8
20260901024304 64 53 1.0 1.0 0.00 0.00 0.00 48 1013.9
20260901023803 64 53 1.0 1.0 0.00 0.00 0.00 47 1013.7
20260901023303 65 53 1.0 1.0 0.00 0.00 0.00 47 1013.9
20260901022804 65 53 1.0 1.0 0.00 0.00 0.00 47 1014.0
20260901022306 65 53 1.0 1.0 0.00 0.00 0.00 46 1013.8
20260901021803 65 53 1.0 1.0 0.00 0.00 0.00 46 1013.7
20260901021304 66 53 1.0 1.0 0.00 0.00 0.00 45 1013.8
20260901020804 66 53 1.0 1.0 0.00 0.00 0.00 45 1013.9
20260901015306 67 53 1.0 1.0 0.00 0.00 0.00 44 1013.7
20260901014303 67 53 1.0 1.0 0.00 0.00 0.00 43 1013.6
20260901013804 67 53 1.0 1.0 0.00 0.00 0.00 43 1013.7
20260901012804 68 53 1.0 1.0 0.00 0.00 0.00 43 1013.8
20260901012306 68 53 1.0 1.0 0.00 0.00 0.00 43 1013.7
20260901011803 68 53 1.0 1.0 0.00 0.00 0.00 42 1013.8
20260901011304 69 53 1.0 1.0 0.00 0.00 0.00 42 1013.9
20260901010803 69 53 1.0 1.0 0.00 0.00 0.00 42 1013.9
20260901005804 69 53 1.0 1.0 0.00 0.00 0.00 41 1013.8
20260901004304 69 53 1.0 1.0 0.00 0.00 0.00 40 1013.9
20260901003803 69 53 1.0 1.0 0.00 0.00 0.00 40 1013.9
20260901003304 69 53 1.0 1.0 0.00 0.00 0.00 40 1013.9
20260901002804 69 53 1.0 1.0 0.00 0.00 0.00 40 1013.8
20260901002305 69 53 1.0 1.0 0.00 0.00 0.00 40 1013.9
20260901001804 69 53 1.0 1.0 0.00 0.00 0.00 40 1013.8
20260901001304 69 53 1.0 1.0 0.00 0.00 0.00 41 1013.8
20260901000804 69 53 1.0 1.0 0.00 0.00 0.00 40 1013.6
20260901000303 69 53 1.0 1.0 0.00 0.00 0.00 41 1013.9
20260831235804 70 53 1.0 1.0 0.00 0.00 0.00 40 1013.8
20260831235306 70 53 1.0 1.0 0.00 0.00 0.00 40 1014.2
20260831234803 70 53 1.0 1.0 0.00 0.00 0.00 40 1013.9
20260831234304 70 53 1.0 1.0 0.00 0.00 0.00 39 1013.8
20260831233803 70 53 1.0 1.0 0.00 0.00 0.00 41 1013.8
20260831233304 70 53 1.0 1.0 0.00 0.00 0.00 39 1014.1
20260831232804 70 53 1.0 1.0 0.00 0.00 0.00 40 1014.1
20260831232306 69 53 1.0 1.0 0.00 0.00 0.00 40 1014.0
20260831231804 70 53 1.0 1.0 0.00 0.00 0.00 38 1014.3
20260831231304 70 53 1.0 1.0 0.00 0.00 0.00 40 1014.0
20260831230803 70 53 1.0 1.0 0.00 0.00 0.00 40 1014.1
20260831230304 70 53 1.0 1.0 0.00 0.00 0.00 40 1014.0
20260831225804 70 53 1.0 1.0 0.00 0.00 0.00 40 1013.9
20260831225306 70 53 1.0 1.0 0.00 0.00 0.00 40 1014.0
20260831224804 70 53 1.0 1.0 0.00 0.00 0.00 40 1014.2
20260831224304 70 53 1.0 1.0 0.00 0.00 0.00 38 1014.1
20260831223804 70 53 1.0 1.0 0.00 0.00 0.00 38 1014.3
20260831223304 70 53 1.0 1.0 0.00 0.00 0.00 39 1014.4
20260831222306 70 53 1.0 1.0 0.00 0.00 0.00 39 1014.2
20260831221804 70 53 1.0 1.0 0.00 0.00 0.00 39 1014.3
20260831221303 70 53 1.0 1.0 0.00 0.00 0.00 39 1014.3
20260831220804 70 53 1.0 1.0 0.00 0.00 0.00 39 1014.4
20260831220304 70 53 1.0 1.0 0.00 0.00 0.00 40 1014.6
20260831215803 70 53 1.0 1.0 0.00 0.00 0.00 38 1014.4
20260831215306 70 53 1.0 1.0 0.00 0.00 0.00 38 1014.4
20260831214804 70 53 1.0 1.0 0.00 0.00 0.00 39 1014.5
20260831214304 70 53 1.0 1.0 0.00 0.00 0.00 40 1014.5
20260831213804 70 53 1.0 1.0 0.00 0.00 0.00 39 1014.5
20260831213304 70 53 1.0 1.0 0.00 0.00 0.00 38 1014.6
20260831212804 71 53 1.0 1.0 0.00 0.00 0.00 37 1014.7
20260831211803 71 53 1.0 1.0 0.00 0.00 0.00 39 1014.8
20260831211304 70 53 1.0 1.0 0.00 0.00 0.00 38 1014.5
20260831210304 71 53 1.0 1.0 0.00 0.00 0.00 39 1014.8
20260831205804 71 53 1.0 1.0 0.00 0.00 0.00 37 1014.7
20260831205306 71 53 1.0 1.0 0.00 0.00 0.00 38 1014.8
20260831204803 71 53 1.0 1.0 0.00 0.00 0.00 36 1014.6
20260831204304 71 53 1.0 1.0 0.00 0.00 0.00 39 1014.8
20260831203803 71 53 1.0 1.0 0.00 0.00 0.00 38 1015.0
20260831203304 71 53 1.0 1.0 0.00 0.00 0.00 39 1015.1
20260831202804 71 53 1.0 1.0 0.00 0.00 0.00 38 1015.0
20260831202306 71 53 1.0 1.0 0.00 0.00 0.00 39 1015.0
20260831201804 71 53 1.0 1.0 0.00 0.00 0.00 37 1015.0
20260831201304 71 53 1.0 1.0 0.00 0.00 0.00 38 1015.3
20260831200804 71 53 1.0 1.0 0.00 0.00 0.00 38 1015.3
20260831200304 71 53 1.0 1.0 0.00 0.00 0.00 38 1015.2
20260831195803 71 53 1.0 1.0 0.00 0.00 0.00 36 1015.3
20260831194803 72 53 1.0 1.0 0.00 0.00 0.00 36 1015.4
20260831194304 72 53 1.0 1.0 0.00 0.00 0.00 38 1015.4
20260831193804 72 53 1.0 1.0 0.00 0.00 0.00 36 1015.3
20260831193304 73 53 1.0 1.0 0.00 0.00 0.00 37 1015.3
20260831192803 72 53 1.0 1.0 0.00 0.00 0.00 38 1015.4
20260831192305 73 53 1.0 1.0 0.00 0.00 0.00 37 1015.5
20260831190803 73 53 1.0 1.0 0.00 0.00 0.00 35 1015.9
20260831190304 72 53 1.0 1.0 0.00 0.00 0.00 37 1015.7
20260831185804 72 53 1.0 1.0 0.00 0.00 0.00 37 1016.0
20260831185306 72 53 1.0 1.0 0.00 0.00 0.00 37 1015.9
20260831184804 72 53 1.0 1.0 0.00 0.00 0.00 38 1015.9